CYAH

La Grande Iv Airport

La Grande, Canada
Issued Wind Visibility Ceiling Temperature Dew Point Humidity Barometer
Sep-22
14:00 UTC
210°
7 KTS
9 miles   14° C
57° F
C
45° F
63% 30.07" Hg
1019.5 hPa
VFR
Sep-22
13:00 UTC
9 miles   10° C
50° F
C
45° F
82% 30.09" Hg
1020.1 hPa
VFR
Sep-22
12:00 UTC
230°
5 KTS
9 miles   C
48° F
C
41° F
76% 30.1" Hg
1020.4 hPa
VFR
Sep-22
11:00 UTC
220°
8 KTS
9 miles   C
46° F
C
41° F
82% 30.09" Hg
1020.3 hPa
VFR
Sep-22
10:00 UTC
210°
9 KTS
9 miles   C
48° F
C
41° F
76% 30.1" Hg
1020.3 hPa
VFR
Sep-22
09:00 UTC
240°
5 KTS
9 miles   C
46° F
C
41° F
82% 30.09" Hg
1020 hPa
VFR
Sep-22
08:00 UTC
240°
5 KTS
9 miles Broken
21,000' AGL
C
48° F
C
41° F
76% 30.08" Hg
1019.8 hPa
VFR
Sep-22
07:00 UTC
230°
6 KTS
9 miles   C
48° F
C
41° F
76% 30.08" Hg
1019.7 hPa
VFR
Sep-22
06:00 UTC
220°
7 KTS
9 miles Broken
22,000' AGL
C
48° F
C
43° F
82% 30.09" Hg
1020.1 hPa
VFR
Sep-22
05:00 UTC
220°
7 KTS
9 miles   C
48° F
C
43° F
82% 30.09" Hg
1020.2 hPa
VFR
Sep-22
04:00 UTC
210°
6 KTS
9 miles   C
48° F
C
43° F
82% 30.09" Hg
1020.3 hPa
VFR
Sep-22
03:00 UTC
220°
3 KTS
9 miles   10° C
50° F
C
45° F
82% 30.08" Hg
1020 hPa
VFR
Sep-22
02:00 UTC
220°
5 KTS
9 miles   11° C
52° F
C
46° F
82% 30.07" Hg
1019.6 hPa
VFR
Sep-22
01:00 UTC
230°
8 KTS
9 miles   12° C
54° F
C
48° F
82% 30.07" Hg
1019.5 hPa
VFR
Sep-22
00:00 UTC
240°
7 KTS
9 miles   13° C
55° F
C
48° F
77% 30.06" Hg
1019.1 hPa
VFR
Sep-21
23:00 UTC
240°
9 KTS
9 miles   14° C
57° F
C
48° F
72% 30.04" Hg
1018.6 hPa
VFR
Sep-21
22:00 UTC
250°
10 KTS
Gust 17 KTS
9 miles   16° C
61° F
10° C
50° F
68% 30.02" Hg
1017.7 hPa
VFR
Sep-21
21:00 UTC
260°
11 KTS
Gust 17 KTS
9 miles   17° C
63° F
11° C
52° F
68% 30" Hg
1017.3 hPa
VFR
Sep-21
20:00 UTC
270°
10 KTS
Gust 15 KTS
9 miles   16° C
61° F
12° C
54° F
77% 29.97" Hg
1016.2 hPa
VFR
Sep-21
19:12 UTC
260°
14 KTS
Gust 20 KTS
9 miles Broken
3,400' AGL
16° C
61° F
13° C
55° F
83% 29.97" Hg
1016.1 hPa
VFR
Sep-21
19:00 UTC
260°
13 KTS
Gust 19 KTS
9 miles Broken
1,800' AGL
16° C
61° F
13° C
55° F
83% 29.96" Hg
1016 hPa
MVFR
Sep-21
18:54 UTC
250°
12 KTS
Gust 19 KTS
9 miles Broken
1,800' AGL
15° C
59° F
13° C
55° F
88% 29.96" Hg
1016 hPa
MVFR
Sep-21
18:00 UTC
240°
11 KTS
9 miles Overcast
1,100' AGL
13° C
55° F
12° C
54° F
94% 29.96" Hg
1015.9 hPa
MVFR
Sep-21
17:44 UTC
230°
13 KTS
Gust 18 KTS
6 miles Overcast
1,100' AGL
12° C
54° F
11° C
52° F
94% 29.95" Hg
1015.7 hPa
MVFR
Sep-21
17:27 UTC
240°
11 KTS
Gust 16 KTS
5 miles Overcast
1,300' AGL
12° C
54° F
11° C
52° F
94% 29.95" Hg
1015.7 hPa
MVFR
Sep-21
17:00 UTC
230°
6 KTS
9 miles Overcast
1,700' AGL
12° C
54° F
10° C
50° F
88% 29.94" Hg
1015.4 hPa
MVFR
Sep-21
16:47 UTC
210°
10 KTS
Gust 18 KTS
7 miles Overcast
1,900' AGL
12° C
54° F
10° C
50° F
88% 29.94" Hg
1015.2 hPa
MVFR
Sep-21
16:36 UTC
210°
11 KTS
Gust 18 KTS
8 miles Overcast
2,100' AGL
12° C
54° F
10° C
50° F
88% 29.94" Hg
1015.2 hPa
MVFR
Sep-21
16:19 UTC
200°
12 KTS
Gust 17 KTS
9 miles Overcast
2,300' AGL
12° C
54° F
10° C
50° F
88% 29.94" Hg
1015.2 hPa
MVFR
Sep-21
16:03 UTC
210°
6 KTS
9 miles Overcast
2,300' AGL
11° C
52° F
C
48° F
88% 29.94" Hg
1015.3 hPa
MVFR
Sep-21
15:49 UTC
230°
5 KTS
9 miles Overcast
2,500' AGL
11° C
52° F
C
48° F
88% 29.95" Hg
1015.5 hPa
MVFR
Sep-21
15:38 UTC
200°
3 KTS
9 miles Overcast
2,700' AGL
11° C
52° F
C
48° F
88% 29.95" Hg
1015.5 hPa
MVFR
Sep-21
15:20 UTC
220°
6 KTS
Gust 15 KTS
7 miles Broken
2,700' AGL
10° C
50° F
C
46° F
88% 29.95" Hg
1015.6 hPa
MVFR
Sep-21
15:13 UTC
230°
7 KTS
Gust 20 KTS
5 miles Broken
3,000' AGL
11° C
52° F
C
46° F
82% 29.95" Hg
1015.6 hPa
MVFR